• In Spain
  • List of Countries
  • For 7 days
  • Water Temperature
  • Satellite Maps
  • Weather Map
  • Weather Widgets
  • user-avatar
    Login

    Hourly Weather Yulara

    Today, 17 December, Sunday

    Time Temperature Precipitation Wind Pressure Humidity
    00:00 +36°C° 0 mm 3 mps 714 mmHg 22%
    01:00 +36°C° 0 mm 4 mps 713 mmHg 24%
    02:00 +35°C° 0 mm 4 mps 713 mmHg 25%
    03:00 +35°C° 0 mm 5 mps 713 mmHg 27%
    04:00 +35°C° 0 mm 5 mps 713 mmHg 26%
    05:00 +35°C° 0 mm 5 mps 714 mmHg 26%
    06:00 +35°C° 0 mm 4 mps 714 mmHg 26%
    07:00 +36°C° 0 mm 5 mps 714 mmHg 24%
    08:00 +37°C° 0 mm 5 mps 714 mmHg 22%
    09:00 +40°C° 0 mm 5 mps 714 mmHg 19%
    10:00 +41°C° 0 mm 6 mps 714 mmHg 17%
    11:00 +42°C° 0 mm 6 mps 714 mmHg 16%
    12:00 +45°C° 0 mm 6 mps 714 mmHg 14%
    13:00 +45°C° 0 mm 6 mps 713 mmHg 14%
    14:00 +45°C° 0 mm 6 mps 713 mmHg 14%
    15:00 +45°C° 0 mm 6 mps 712 mmHg 14%
    16:00 +45°C° 0 mm 6 mps 712 mmHg 14%
    17:00 +43°C° 0 mm 5 mps 712 mmHg 14%
    18:00 +43°C° 0 mm 5 mps 712 mmHg 15%
    19:00 +42°C° 0 mm 5 mps 712 mmHg 16%
    20:00 +41°C° 0 mm 4 mps 712 mmHg 17%
    21:00 +40°C° 0 mm 4 mps 712 mmHg 19%
    22:00 +38°C° 0 mm 4 mps 712 mmHg 20%
    23:00 +37°C° 0 mm 4 mps 712 mmHg 21%

    Tomorrow, 18 December, Monday

    Time Temperature Precipitation Wind Pressure Humidity
    00:00 +37°C° 0 mm 4 mps 712 mmHg 22%
    01:00 +36°C° 0 mm 4 mps 712 mmHg 23%
    02:00 +35°C° 0 mm 3 mps 711 mmHg 24%
    03:00 +34°C° 0 mm 3 mps 711 mmHg 26%
    04:00 +34°C° 0 mm 4 mps 711 mmHg 26%
    05:00 +34°C° 0 mm 4 mps 711 mmHg 27%
    06:00 +34°C° 0 mm 5 mps 712 mmHg 27%
    07:00 +36°C° 0 mm 7 mps 712 mmHg 26%
    08:00 +38°C° 0 mm 9 mps 712 mmHg 24%
    09:00 +40°C° 0 mm 10 mps 712 mmHg 23%
    10:00 +42°C° 0 mm 11 mps 712 mmHg 21%
    11:00 +43°C° 0 mm 11 mps 712 mmHg 20%
    12:00 +44°C° 0 mm 11 mps 711 mmHg 18%
    13:00 +44°C° 0 mm 11 mps 711 mmHg 18%
    14:00 +44°C° 0 mm 11 mps 710 mmHg 18%
    15:00 +44°C° 0 mm 11 mps 710 mmHg 18%
    16:00 +44°C° 0 mm 10 mps 710 mmHg 19%
    17:00 +43°C° 0 mm 9 mps 710 mmHg 20%
    18:00 +43°C° 0 mm 8 mps 710 mmHg 21%
    19:00 +41°C° 0.2 mm 8 mps 710 mmHg 23%
    20:00 +40°C° 0.2 mm 7 mps 711 mmHg 25%
    21:00 +39°C° 0.2 mm 6 mps 711 mmHg 27%
    22:00 +38°C° 0 mm 6 mps 711 mmHg 29%
    23:00 +36°C° 0 mm 5 mps 711 mmHg 30%

    Day after tomorrow, 19 December, Tuesday

    Time Temperature Precipitation Wind Pressure Humidity
    00:00 +35°C° 0 mm 5 mps 712 mmHg 31%
    01:00 +34°C° 0.1 mm 5 mps 712 mmHg 27%
    02:00 +33°C° 0.1 mm 5 mps 712 mmHg 23%
    03:00 +32°C° 0.1 mm 6 mps 712 mmHg 19%
    04:00 +30°C° 0 mm 6 mps 712 mmHg 18%
    05:00 +29°C° 0 mm 6 mps 712 mmHg 17%
    06:00 +28°C° 0 mm 5 mps 712 mmHg 16%
    07:00 +30°C° 0 mm 5 mps 713 mmHg 16%
    08:00 +32°C° 0 mm 5 mps 713 mmHg 15%
    09:00 +34°C° 0 mm 5 mps 714 mmHg 14%
    10:00 +36°C° 0 mm 4 mps 714 mmHg 14%
    11:00 +37°C° 0 mm 2 mps 713 mmHg 13%
    12:00 +37°C° 0 mm 1 mps 713 mmHg 13%
    13:00 +39°C° 0 mm 2 mps 712 mmHg 12%
    14:00 +40°C° 0 mm 2 mps 712 mmHg 12%
    15:00 +41°C° 0 mm 2 mps 711 mmHg 12%
    16:00 +43°C° 0 mm 3 mps 711 mmHg 11%
    17:00 +43°C° 0 mm 4 mps 711 mmHg 11%
    18:00 +43°C° 0 mm 5 mps 711 mmHg 11%
    19:00 +41°C° 0 mm 6 mps 712 mmHg 12%
    20:00 +39°C° 0 mm 8 mps 713 mmHg 13%
    21:00 +37°C° 0 mm 10 mps 713 mmHg 13%
    22:00 +35°C° 0 mm 9 mps 714 mmHg 13%
    23:00 +34°C° 0 mm 9 mps 714 mmHg 13%

    20 December, Wednesday

    Time Temperature Precipitation Wind Pressure Humidity
    00:00 +32°C° 0 mm 9 mps 715 mmHg 13%
    01:00 +31°C° 0 mm 10 mps 715 mmHg 14%
    02:00 +31°C° 0 mm 10 mps 715 mmHg 15%
    03:00 +29°C° 0 mm 10 mps 715 mmHg 15%
    04:00 +28°C° 0 mm 10 mps 716 mmHg 18%
    05:00 +27°C° 0 mm 10 mps 716 mmHg 20%
    06:00 +27°C° 0 mm 10 mps 717 mmHg 23%
    07:00 +27°C° 0 mm 9 mps 717 mmHg 25%
    08:00 +27°C° 0 mm 9 mps 718 mmHg 28%
    09:00 +27°C° 0 mm 9 mps 718 mmHg 30%
    10:00 +29°C° 0 mm 8 mps 718 mmHg 26%
    11:00 +33°C° 0 mm 8 mps 718 mmHg 22%
    12:00 +35°C° 0 mm 8 mps 718 mmHg 18%
    13:00 +36°C° 0 mm 7 mps 717 mmHg 17%
    14:00 +36°C° 0 mm 7 mps 717 mmHg 17%
    15:00 +38°C° 0 mm 6 mps 716 mmHg 16%
    16:00 +38°C° 0 mm 6 mps 716 mmHg 16%
    17:00 +38°C° 0 mm 6 mps 716 mmHg 16%
    18:00 +36°C° 0 mm 6 mps 716 mmHg 17%
    19:00 +35°C° 0 mm 7 mps 717 mmHg 17%
    20:00 +34°C° 0 mm 8 mps 717 mmHg 17%
    21:00 +32°C° 0 mm 8 mps 717 mmHg 17%
    22:00 +32°C° 0 mm 8 mps 717 mmHg 18%
    23:00 +31°C° 0 mm 8 mps 718 mmHg 18%

    21 December, Thursday

    Time Temperature Precipitation Wind Pressure Humidity
    00:00 +29°C° 0 mm 7 mps 718 mmHg 19%
    01:00 +28°C° 0 mm 7 mps 718 mmHg 20%
    02:00 +28°C° 0 mm 7 mps 717 mmHg 21%
    03:00 +27°C° 0 mm 6 mps 717 mmHg 22%
    04:00 +27°C° 0 mm 6 mps 717 mmHg 23%
    05:00 +26°C° 0 mm 6 mps 718 mmHg 24%
    06:00 +26°C° 0 mm 6 mps 718 mmHg 24%
    07:00 +28°C° 0 mm 6 mps 718 mmHg 22%
    08:00 +30°C° 0 mm 7 mps 719 mmHg 19%
    09:00 +33°C° 0 mm 8 mps 719 mmHg 17%
    10:00 +34°C° 0 mm 8 mps 719 mmHg 16%
    11:00 +36°C° 0 mm 7 mps 719 mmHg 14%
    12:00 +38°C° 0 mm 6 mps 718 mmHg 13%
    13:00 +38°C° 0 mm 6 mps 717 mmHg 13%
    14:00 +39°C° 0 mm 5 mps 717 mmHg 12%
    15:00 +39°C° 0 mm 5 mps 716 mmHg 11%
    16:00 +39°C° 0 mm 5 mps 716 mmHg 11%
    17:00 +39°C° 0 mm 5 mps 716 mmHg 10%
    18:00 +39°C° 0 mm 5 mps 716 mmHg 10%
    19:00 +36°C° 0 mm 5 mps 716 mmHg 11%
    20:00 +35°C° 0 mm 5 mps 716 mmHg 11%
    21:00 +33°C° 0 mm 5 mps 717 mmHg 12%
    22:00 +32°C° 0 mm 5 mps 717 mmHg 13%
    23:00 +32°C° 0 mm 5 mps 716 mmHg 13%

    22 December, Friday

    Time Temperature Precipitation Wind Pressure Humidity
    00:00 +30°C° 0 mm 5 mps 716 mmHg 14%
    01:00 +29°C° 0 mm 5 mps 716 mmHg 16%
    02:00 +29°C° 0 mm 5 mps 715 mmHg 18%
    03:00 +28°C° 0 mm 5 mps 715 mmHg 19%
    04:00 +28°C° 0 mm 5 mps 715 mmHg 21%
    05:00 +27°C° 0 mm 5 mps 715 mmHg 22%
    06:00 +27°C° 0 mm 5 mps 716 mmHg 23%
    07:00 +30°C° 0 mm 6 mps 716 mmHg 20%
    08:00 +33°C° 0 mm 7 mps 717 mmHg 18%
    09:00 +37°C° 0 mm 8 mps 717 mmHg 15%
    10:00 +38°C° 0 mm 7 mps 717 mmHg 14%
    11:00 +39°C° 0 mm 5 mps 716 mmHg 12%
    12:00 +41°C° 0 mm 4 mps 716 mmHg 11%
    13:00 +41°C° 0 mm 4 mps 715 mmHg 10%
    14:00 +42°C° 0 mm 3 mps 714 mmHg 10%
    15:00 +42°C° 0 mm 3 mps 714 mmHg 9%
    16:00 +42°C° 0 mm 3 mps 714 mmHg 9%
    17:00 +42°C° 0 mm 3 mps 714 mmHg 9%
    18:00 +42°C° 0 mm 3 mps 714 mmHg 9%
    19:00 +39°C° 0 mm 3 mps 714 mmHg 10%
    20:00 +38°C° 0 mm 4 mps 714 mmHg 11%
    21:00 +36°C° 0 mm 4 mps 714 mmHg 11%
    22:00 +35°C° 0 mm 4 mps 714 mmHg 12%
    23:00 +34°C° 0 mm 4 mps 714 mmHg 12%
    Show more